DW6927 Weather Reports


Display with metric or nautical units.
time (UTC)temp
F
wind
direction
speed
MPH
gust
MPH
rain 1hr
in
rain 24hr
in
rain mn
in
humidity
%
barometer
mb
20260507214551 58 275 1.0 3.0 0.00 1.42 0.87 90 1012.8
20260507214054 58 304 1.0 3.0 0.00 1.42 0.87 89 1012.7
20260507213553 58 0 0.0 3.0 0.00 1.42 0.87 90 1012.4
20260507213056 58 71 0.0 2.0 0.00 1.42 0.87 90 1012.4
20260507212553 58 0 0.0 2.0 0.00 1.42 0.87 90 1012.4
20260507212053 58 0 0.0 2.0 0.00 1.42 0.87 90 1012.4
20260507211602 58 0 0.0 3.0 0.00 1.42 0.87 90 1012.3
20260507211054 58 292 0.0 4.0 0.00 1.42 0.87 90 1012.4
20260507210554 58 229 1.0 4.0 0.00 1.42 0.87 90 1012.4
20260507210112 58 304 0.0 2.0 0.00 1.42 0.87 91 1012.2
20260507205553 58 0 0.0 3.0 0.00 1.98 0.87 91 1012.0
20260507205053 58 0 1.0 3.0 0.00 1.98 0.87 90 1012.1
20260507204553 58 0 0.0 3.0 0.00 1.98 0.87 90 1012.2
20260507204055 58 291 1.0 3.0 0.00 1.98 0.87 90 1012.3
20260507203551 58 312 1.0 3.0 0.00 1.98 0.87 90 1012.3
20260507203051 58 290 0.0 3.0 0.00 1.98 0.87 91 1012.3
20260507202556 58 0 0.0 4.0 0.00 1.98 0.87 90 1012.0
20260507202052 58 277 0.0 4.0 0.00 1.98 0.87 90 1012.2
20260507201552 58 281 1.0 4.0 0.00 1.98 0.87 90 1012.2
20260507201053 59 0 0.0 2.0 0.00 1.98 0.87 91 1012.0
20260507200553 59 265 0.0 3.0 0.00 1.98 0.87 91 1012.0
20260507200103 59 0 0.0 5.0 0.00 1.98 0.87 91 1012.1
20260507195554 59 319 1.0 5.0 0.00 2.17 0.87 90 1012.1
20260507195053 59 279 0.0 3.0 0.00 2.17 0.87 90 1012.0
20260507194558 59 290 1.0 3.0 0.00 2.17 0.87 89 1012.3
20260507194052 59 0 0.0 3.0 0.00 2.17 0.87 89 1012.4
20260507193554 60 304 1.0 3.0 0.00 2.17 0.87 89 1012.1
20260507193055 60 320 1.0 3.0 0.00 2.17 0.87 90 1012.1
20260507192554 60 287 1.0 3.0 0.00 2.17 0.87 89 1012.0
20260507192052 61 175 1.0 2.0 0.00 2.17 0.87 90 1012.0
20260507191555 61 302 1.0 3.0 0.00 2.17 0.87 89 1012.0
20260507191050 61 305 1.0 3.0 0.00 2.17 0.87 90 1011.9
20260507190550 61 300 1.0 3.0 0.00 2.17 0.87 92 1012.0
20260507190106 60 289 1.0 3.0 0.00 2.17 0.87 93 1011.9
20260507185551 60 263 0.0 3.0 0.00 2.17 0.87 92 1012.0
20260507185055 59 279 1.0 2.0 0.00 2.17 0.87 92 1011.9
20260507184558 59 258 0.0 2.0 0.00 2.17 0.87 92 1011.7
20260507184055 60 264 0.0 2.0 0.00 2.17 0.87 93 1012.0
20260507183554 60 0 0.0 2.0 0.00 2.17 0.87 92 1012.2
20260507183115 60 307 0.0 2.0 0.00 2.17 0.87 92 1012.3
20260507182555 60 288 1.0 3.0 0.00 2.17 0.87 91 1012.4
20260507182055 61 311 1.0 3.0 0.00 2.17 0.87 92 1012.3
20260507181600 61 315 0.0 3.0 0.00 2.17 0.87 93 1012.2
20260507181055 61 0 1.0 3.0 0.00 2.17 0.87 94 1012.2
20260507180556 60 304 1.0 3.0 0.00 2.17 0.87 96 1012.2
20260507180055 60 0 0.0 3.0 0.00 2.17 0.87 96 1012.3
20260507175555 59 317 1.0 3.0 0.00 2.17 0.87 96 1012.0
20260507175054 59 0 1.0 3.0 0.00 2.17 0.87 96 1012.3
20260507174604 59 293 1.0 3.0 0.00 2.17 0.87 96 1012.4
20260507174055 58 281 1.0 3.0 0.00 2.17 0.87 97 1012.4
20260507173554 58 294 1.0 3.0 0.00 2.17 0.87 97 1012.3
20260507173102 58 0 1.0 3.0 0.00 2.17 0.87 98 1012.5
20260507172553 58 360 0.0 3.0 0.00 2.17 0.87 98 1012.3
20260507172053 58 299 0.0 3.0 0.00 2.17 0.87 98 1012.6
20260507171552 57 161 0.0 2.0 0.00 2.17 0.87 98 1012.6
20260507171055 57 321 0.0 3.0 0.00 2.17 0.87 97 1012.6
20260507170555 57 263 0.0 3.0 0.00 2.17 0.87 97 1012.7
20260507170057 57 284 1.0 4.0 0.00 2.17 0.87 97 1012.8
20260507165554 57 308 1.0 4.0 0.00 2.17 0.87 97 1012.8
20260507165054 57 292 1.0 4.0 0.00 2.17 0.87 97 1012.6
20260507164628 57 246 1.0 4.0 0.00 2.17 0.87 97 1012.3
20260507164054 57 264 1.0 4.0 0.00 2.17 0.87 97 1012.3
20260507163553 57 274 2.0 4.0 0.00 2.17 0.87 97 1012.1
20260507163058 57 284 1.0 4.0 0.00 2.17 0.87 97 1012.2
20260507162554 57 296 2.0 4.0 0.00 2.17 0.87 97 1012.2
20260507162054 58 241 1.0 4.0 0.00 2.17 0.87 97 1012.1
20260507161600 58 288 1.0 4.0 0.00 2.17 0.87 97 1012.0
20260507161059 59 309 1.0 4.0 0.00 2.17 0.87 98 1012.0
20260507160555 60 297 1.0 3.0 0.00 2.17 0.87 98 1011.8
20260507160054 60 302 1.0 3.0 0.00 2.17 0.87 98 1011.7
20260507155553 60 5 0.0 3.0 0.00 2.27 0.87 98 1011.6
20260507155054 60 23 1.0 3.0 0.00 2.27 0.87 98 1011.6
20260507154559 60 0 0.0 3.0 0.00 2.27 0.87 98 1011.4
20260507154056 60 300 0.0 3.0 0.00 2.27 0.87 98 1011.5
20260507153554 60 0 0.0 2.0 0.00 2.27 0.87 98 1011.6
20260507153058 60 0 0.0 0.0 0.00 2.27 0.87 98 1011.4
20260507152554 60 0 0.0 0.0 0.00 2.27 0.87 98 1011.6
20260507152054 60 0 0.0 0.0 0.00 2.27 0.87 98 1011.4
20260507151556 60 0 0.0 0.0 0.00 2.27 0.87 98 1011.5
20260507151054 60 0 0.0 0.0 0.00 2.27 0.87 98 1011.5
20260507150554 61 0 0.0 0.0 0.00 2.27 0.87 98 1011.5
20260507150054 61 0 0.0 1.0 0.00 2.27 0.87 98 1011.4
20260507145554 61 0 0.0 2.0 0.00 2.49 0.87 98 1011.3
20260507145057 61 288 0.0 2.0 0.00 2.49 0.87 98 1011.5
20260507144601 61 278 0.0 2.0 0.00 2.49 0.87 98 1011.5
20260507144056 61 327 0.0 2.0 0.00 2.49 0.87 98 1011.6
20260507143554 61 0 0.0 0.0 0.00 2.49 0.87 98 1011.5
20260507143105 61 0 0.0 0.0 0.00 2.49 0.87 98 1011.6
20260507142554 61 0 0.0 0.0 0.00 2.49 0.87 98 1011.6
20260507142054 61 0 0.0 1.0 0.00 2.49 0.87 98 1011.6
20260507141556 61 0 0.0 1.0 0.00 2.49 0.87 98 1011.7
20260507141054 61 0 0.0 1.0 0.00 2.49 0.87 98 1011.4
20260507140554 61 0 0.0 0.0 0.00 2.49 0.87 98 1011.4
20260507140056 61 0 0.0 0.0 0.00 2.49 0.87 98 1011.4
20260507135556 61 0 0.0 0.0 0.00 2.53 0.87 98 1011.3
20260507135055 61 0 0.0 0.0 0.00 2.53 0.87 98 1011.2
20260507134555 61 0 0.0 0.0 0.00 2.53 0.87 98 1011.2
20260507134053 61 0 0.0 0.0 0.00 2.53 0.87 98 1011.1
20260507133554 61 0 0.0 0.0 0.00 2.53 0.87 98 1011.0
20260507133056 61 0 0.0 0.0 0.01 2.53 0.87 98 1011.0
20260507132553 61 0 0.0 0.0 0.01 2.53 0.87 98 1010.9
20260507132053 61 0 0.0 0.0 0.02 2.53 0.87 98 1010.6
20260507131605 61 0 0.0 0.0 0.04 2.53 0.87 98 1010.5
20260507131056 61 0 0.0 0.0 0.04 2.53 0.87 98 1010.7
20260507130554 61 0 0.0 0.0 0.04 2.53 0.87 98 1010.5
20260507130058 60 0 0.0 0.0 0.04 2.53 0.87 98 1010.4
20260507125554 60 0 0.0 0.0 0.04 2.54 0.87 98 1010.4
20260507125054 60 0 0.0 0.0 0.04 2.54 0.87 98 1010.6
20260507124603 60 0 0.0 0.0 0.05 2.54 0.87 98 1010.7
20260507124055 60 0 0.0 0.0 0.08 2.54 0.87 98 1011.0
20260507123555 60 0 0.0 0.0 0.10 2.54 0.87 98 1011.1
20260507123107 60 0 0.0 0.0 0.11 2.53 0.86 98 1011.0
20260507122552 60 0 0.0 0.0 0.11 2.53 0.86 98 1011.0
20260507122053 60 0 0.0 0.0 0.10 2.52 0.85 98 1011.5
20260507121553 60 0 0.0 0.0 0.09 2.50 0.83 98 1011.9
20260507121053 60 0 0.0 0.0 0.10 2.50 0.83 98 1011.5
20260507120553 60 0 0.0 0.0 0.11 2.50 0.83 98 1011.6
20260507120053 60 0 0.0 0.0 0.13 2.50 0.83 98 1011.2
20260507115553 59 0 0.0 0.0 0.14 2.51 0.83 98 1010.4
20260507115054 59 0 0.0 0.0 0.15 2.51 0.83 98 1010.8
20260507114606 59 0 0.0 0.0 0.14 2.50 0.82 98 1010.8
20260507114052 59 0 0.0 0.0 0.11 2.47 0.79 98 1010.7
20260507113552 59 0 0.0 0.0 0.10 2.45 0.77 98 1010.5
20260507113126 59 0 0.0 0.0 0.10 2.43 0.75 98 1010.6
20260507112552 59 0 0.0 0.0 0.11 2.43 0.75 98 1010.4
20260507112052 59 0 0.0 0.0 0.13 2.43 0.75 98 1010.3
20260507111555 59 0 0.0 0.0 0.14 2.42 0.74 98 1010.3
20260507111051 59 0 0.0 0.0 0.15 2.41 0.73 98 1010.2
20260507110553 59 0 0.0 0.0 0.16 2.40 0.72 98 1010.0
20260507110053 59 0 0.0 0.0 0.15 2.38 0.70 98 1010.2
20260507105550 59 0 0.0 0.0 0.14 2.36 0.69 98 1010.5
20260507105052 60 0 0.0 0.0 0.13 2.35 0.68 98 1010.6
20260507104555 59 0 0.0 0.0 0.13 2.35 0.68 98 1010.9
20260507104051 60 0 0.0 0.0 0.13 2.35 0.68 98 1010.7
20260507103550 60 0 0.0 0.0 0.12 2.34 0.67 98 1010.5
20260507103058 60 0 0.0 1.0 0.11 2.33 0.65 98 1010.3
20260507102550 60 0 0.0 1.0 0.12 2.32 0.64 98 1010.5
20260507102050 60 0 0.0 1.0 0.10 2.30 0.62 98 1010.6
20260507101554 60 0 0.0 0.0 0.08 2.28 0.60 98 1011.8
20260507101055 60 0 0.0 0.0 0.06 2.26 0.58 98 1011.8
20260507100550 60 0 0.0 0.0 0.04 2.24 0.56 98 1011.6
20260507100111 60 0 0.0 0.0 0.03 2.23 0.55 98 1011.3
20260507095550 60 0 0.0 0.0 0.03 2.23 0.55 98 1010.7
20260507095052 60 0 0.0 0.0 0.03 2.23 0.55 98 1010.6
20260507094607 60 0 0.0 0.0 0.04 2.23 0.55 98 1010.4
20260507094053 60 0 0.0 0.0 0.04 2.23 0.55 98 1010.6
20260507093550 60 0 0.0 0.0 0.04 2.23 0.55 98 1011.0
20260507093110 60 0 0.0 0.0 0.03 2.22 0.54 98 1011.1
20260507092553 59 0 0.0 0.0 0.01 2.20 0.52 98 1011.4
20260507092053 59 0 0.0 0.0 0.01 2.20 0.52 98 1011.8
20260507091632 59 0 0.0 0.0 0.01 2.20 0.52 98 1010.1
20260507091054 60 0 0.0 0.0 0.01 2.20 0.52 98 1010.1
20260507090555 60 0 0.0 0.0 0.01 2.20 0.52 98 1010.1
20260507090055 60 0 0.0 0.0 0.01 2.20 0.52 98 1010.0
20260507085554 60 0 0.0 0.0 0.01 2.20 0.52 98 1010.2
20260507085054 60 0 0.0 0.0 0.00 2.19 0.51 98 1010.4
20260507084604 60 0 0.0 0.0 0.00 2.19 0.51 98 1010.3
20260507084054 60 0 0.0 0.0 0.00 2.19 0.51 98 1011.2
20260507083555 60 0 0.0 0.0 0.00 2.19 0.51 98 1011.6
20260507083055 60 0 0.0 0.0 0.00 2.19 0.51 98 1010.7
20260507082553 60 0 0.0 0.0 0.00 2.19 0.51 98 1010.7
20260507082053 60 0 0.0 0.0 0.00 2.19 0.51 98 1010.2
20260507081559 60 0 0.0 0.0 0.00 2.19 0.51 98 1010.3
20260507081054 60 0 0.0 0.0 0.00 2.19 0.51 98 1009.9
20260507080553 60 0 0.0 0.0 0.00 2.19 0.51 98 1010.1
20260507080105 60 0 0.0 0.0 0.00 2.19 0.51 98 1010.1
20260507075554 60 0 0.0 0.0 0.00 2.19 0.51 98 1010.2
20260507075053 60 0 0.0 0.0 0.00 2.19 0.51 98 1010.8
20260507074559 60 0 0.0 0.0 0.01 2.19 0.51 98 1010.9
20260507074056 60 0 0.0 0.0 0.01 2.19 0.51 98 1011.0
20260507073554 60 0 0.0 1.0 0.02 2.19 0.51 98 1010.9
20260507073055 60 0 0.0 1.0 0.08 2.19 0.51 98 1011.0
20260507072554 60 0 0.0 1.0 0.12 2.19 0.51 98 1011.2
20260507072053 60 0 0.0 0.0 0.12 2.19 0.51 98 1011.1
20260507071554 60 0 0.0 2.0 0.12 2.19 0.51 98 1011.1
20260507071056 60 0 0.0 2.0 0.12 2.19 0.51 98 1011.0
20260507070554 60 67 0.0 2.0 0.12 2.19 0.51 98 1011.0
20260507070052 60 0 0.0 2.0 0.13 2.19 0.51 98 1011.2
20260507065556 60 0 0.0 5.0 0.17 2.19 0.51 98 1011.4
20260507065053 60 343 2.0 5.0 0.17 2.19 0.51 98 1011.3
20260507064555 60 58 0.0 6.0 0.16 2.18 0.50 98 1011.3
20260507064053 60 53 2.0 6.0 0.16 2.18 0.50 98 1011.8
20260507063554 61 157 1.0 4.0 0.14 2.16 0.48 98 1012.0
20260507063055 61 310 2.0 6.0 0.08 2.09 0.42 98 1011.6
20260507062553 61 309 1.0 7.0 0.06 2.07 0.39 98 1013.1
20260507062053 61 98 3.0 7.0 0.07 2.07 0.39 98 1010.9
20260507061606 61 80 2.0 6.0 0.11 2.07 0.39 98 1010.6
20260507061056 61 43 2.0 4.0 0.14 2.07 0.39 98 1011.2
20260507060557 61 90 2.0 7.0 0.14 2.07 0.39 98 1011.4
20260507060100 61 107 1.0 7.0 0.13 2.06 0.38 98 1011.4
20260507055554 61 90 1.0 4.0 0.10 2.02 0.34 98 1011.6
20260507055054 61 0 1.0 5.0 0.10 2.02 0.34 98 1013.0
20260507054557 61 85 2.0 5.0 0.11 2.02 0.34 98 1011.9
20260507054056 61 42 1.0 4.0 0.12 2.02 0.34 98 1011.3
20260507053554 61 92 0.0 3.0 0.13 2.02 0.34 98 1011.9
20260507053059 61 0 0.0 3.0 0.15 2.02 0.34 98 1012.4
20260507052557 61 225 1.0 3.0 0.15 2.01 0.33 98 1012.3
20260507052053 61 293 2.0 3.0 0.15 2.00 0.32 98 1012.1
20260507051554 61 79 0.0 2.0 0.13 1.96 0.28 98 1012.2
20260507051057 61 79 0.0 2.0 0.14 1.93 0.25 98 1012.7
20260507050556 61 0 0.0 1.0 0.20 1.93 0.25 98 1012.8
20260507050057 61 0 0.0 3.0 0.25 1.93 0.25 98 1012.6
20260507045553 61 0 0.0 3.0 0.26 1.92 0.24 98 1013.0
20260507045054 61 0 1.0 3.0 0.32 1.92 0.24 98 1012.9
20260507044605 61 38 0.0 2.0 0.32 1.90 0.22 98 1013.1
20260507044053 61 0 0.0 2.0 0.32 1.90 0.22 98 1012.9
20260507043553 61 85 0.0 3.0 0.30 1.88 0.20 98 1012.7
20260507043104 61 0 1.0 3.0 0.29 1.87 0.19 98 1013.5
20260507042554 61 25 1.0 2.0 0.28 1.86 0.18 98 1012.9
20260507042054 61 0 0.0 1.0 0.27 1.85 0.17 98 1013.5
20260507041557 61 0 0.0 1.0 0.25 1.83 0.15 98 1013.8
20260507041055 61 0 0.0 2.0 0.21 1.79 0.11 97 1013.6
20260507040554 61 116 0.0 2.0 0.15 1.73 0.05 97 1013.3
20260507040054 61 222 1.0 2.0 0.11 1.68 0.00 97 1013.8
20260507035553 61 0 0.0 2.0 0.09 1.66 1.66 97 1013.9
20260507035053 61 244 0.0 2.0 0.03 1.60 1.60 97 1013.3
20260507034554 61 155 0.0 2.0 0.01 1.58 1.58 97 1013.4
20260507034053 61 155 0.0 2.0 0.01 1.58 1.58 97 1013.1
20260507033554 61 0 0.0 0.0 0.01 1.58 1.58 97 1013.7
20260507033055 61 0 0.0 0.0 0.01 1.58 1.58 97 1012.4
20260507032557 61 0 0.0 0.0 0.01 1.58 1.58 97 1012.5
20260507032053 61 0 0.0 0.0 0.01 1.58 1.58 97 1012.3
20260507031552 61 0 0.0 0.0 0.01 1.58 1.58 98 1012.6
20260507031058 61 0 0.0 0.0 0.01 1.58 1.58 98 1012.8
20260507030554 61 0 0.0 2.0 0.00 1.57 1.57 97 1012.9
20260507030055 61 0 0.0 2.0 0.00 1.57 1.57 98 1013.1
20260507025553 61 88 0.0 1.0 0.00 1.57 1.57 98 1013.0
20260507025057 61 0 0.0 0.0 0.00 1.57 1.57 97 1012.8
20260507024556 61 0 0.0 1.0 0.00 1.57 1.57 97 1012.9
20260507024054 61 0 0.0 1.0 0.00 1.57 1.57 97 1012.9
20260507023553 61 88 0.0 1.0 0.00 1.57 1.57 97 1013.0
20260507023107 61 0 0.0 1.0 0.00 1.57 1.57 97 1012.9
20260507022553 61 0 0.0 0.0 0.00 1.57 1.57 97 1012.9
20260507022053 61 0 0.0 0.0 0.00 1.57 1.57 97 1013.1
20260507021553 61 0 0.0 0.0 0.00 1.57 1.57 97 1013.0
20260507021054 61 0 0.0 1.0 0.00 1.57 1.57 97 1013.0
20260507020554 61 0 0.0 1.0 0.00 1.57 1.57 97 1013.0
20260507015553 61 0 0.0 2.0 0.01 1.57 1.57 97 1013.0
20260507015053 61 0 0.0 1.0 0.02 1.57 1.57 97 1012.9
20260507014602 61 224 0.0 1.0 0.06 1.57 1.57 97 1012.8
20260507014055 61 0 0.0 1.0 0.06 1.57 1.57 97 1012.9
20260507013554 61 0 0.0 2.0 0.06 1.57 1.57 97 1013.0
20260507013054 61 0 0.0 4.0 0.06 1.57 1.57 97 1013.2
20260507012554 61 241 0.0 4.0 0.06 1.57 1.57 97 1013.1
20260507012054 61 80 1.0 4.0 0.06 1.57 1.57 97 1012.9
20260507011555 61 0 0.0 2.0 0.06 1.57 1.57 97 1013.3
20260507011053 61 0 0.0 2.0 0.06 1.57 1.57 97 1013.1
20260507010554 61 286 0.0 2.0 0.06 1.57 1.57 97 1013.4
20260507010052 61 134 0.0 0.0 0.05 1.56 1.56 97 1013.4
20260507005556 61 0 0.0 0.0 0.06 1.56 1.56 97 1013.3
20260507005057 61 0 0.0 0.0 0.04 1.54 1.54 97 1013.5
20260507004557 61 0 0.0 0.0 0.01 1.51 1.51 97 1014.8
20260507004055 61 0 0.0 0.0 0.03 1.51 1.51 97 1014.2
20260507003555 61 0 0.0 0.0 0.09 1.51 1.51 97 1013.9
20260507003106 61 0 0.0 3.0 0.13 1.51 1.51 97 1013.4
20260507002554 61 0 0.0 3.0 0.14 1.51 1.51 97 1013.6
20260507002054 62 0 1.0 3.0 0.15 1.51 1.51 97 1013.8
20260507001614 62 195 1.0 3.0 0.16 1.51 1.51 97 1013.5
20260507001054 62 0 0.0 1.0 0.16 1.51 1.51 97 1014.0
20260507000556 62 0 0.0 1.0 0.16 1.51 1.51 97 1013.8
20260507000056 62 0 0.0 2.0 0.19 1.51 1.51 97 1013.7
20260506235554 62 0 0.0 2.0 0.19 1.50 1.50 97 1013.8
20260506235053 62 226 0.0 2.0 0.20 1.50 1.50 97 1013.7
20260506234555 62 226 1.0 6.0 0.21 1.50 1.50 97 1013.6
20260506234058 62 308 1.0 6.0 0.19 1.48 1.48 97 1013.5
20260506233554 62 71 0.0 3.0 0.13 1.42 1.42 97 1013.2
20260506233058 62 0 0.0 0.0 0.10 1.38 1.38 97 1013.3
20260506232553 62 0 0.0 1.0 0.11 1.37 1.37 97 1012.8
20260506232053 62 0 0.0 2.0 0.10 1.36 1.36 97 1012.4
20260506231605 62 0 0.0 4.0 0.09 1.35 1.35 97 1012.3
20260506231054 62 96 0.0 6.0 0.10 1.35 1.35 97 1012.2
20260506230554 62 66 2.0 6.0 0.14 1.35 1.35 97 1012.3
20260506225557 62 108 0.0 6.0 0.13 1.31 1.31 97 1013.2
20260506225053 62 88 2.0 5.0 0.14 1.30 1.30 97 1012.6
20260506224554 62 0 1.0 3.0 0.15 1.29 1.29 97 1013.5
20260506224054 63 5 0.0 4.0 0.15 1.29 1.29 97 1012.9
20260506223558 63 62 2.0 4.0 0.15 1.29 1.29 97 1012.8
20260506223058 63 109 0.0 4.0 0.13 1.27 1.27 97 1012.7
20260506222557 63 109 1.0 4.0 0.12 1.26 1.26 97 1012.9
20260506222057 63 96 1.0 4.0 0.12 1.26 1.26 97 1012.9
20260506221605 63 0 0.0 0.0 0.12 1.26 1.26 97 1013.2
20260506221053 63 0 0.0 0.0 0.11 1.25 1.25 96 1013.0
20260506220554 63 0 0.0 0.0 0.07 1.21 1.21 96 1013.3
20260506220055 63 0 0.0 0.0 0.08 1.21 1.21 96 1013.2
20260506215557 63 0 0.0 0.0 0.09 1.17 1.17 97 1013.2
20260506215056 63 0 0.0 1.0 0.07 1.16 1.16 97 1013.4